TimeCDT,TemperatureF,Dew PointF,Humidity,Sea Level PressureIn,VisibilityMPH,Wind Direction,Wind SpeedMPH,Gust SpeedMPH,PrecipitationIn,Events,Conditions,WindDirDegrees,DateUTC
12:53 AM,48.9,34.0,56,29.75,10.0,West,8.1,-,N/A,,Clear,280,2013-11-01 05:53:00
1:53 AM,43.0,34.0,71,29.76,10.0,SSW,4.6,-,N/A,,Clear,210,2013-11-01 06:53:00
2:53 AM,43.0,34.0,71,29.77,10.0,SW,8.1,-,N/A,,Clear,220,2013-11-01 07:53:00
3:53 AM,44.1,34.0,68,29.78,10.0,WSW,11.5,-,N/A,,Clear,240,2013-11-01 08:53:00
4:53 AM,42.1,34.0,73,29.78,10.0,SSW,4.6,-,N/A,,Clear,210,2013-11-01 09:53:00
5:53 AM,42.1,33.1,70,29.80,10.0,Calm,Calm,-,N/A,,Clear,0,2013-11-01 10:53:00
6:53 AM,42.1,33.1,70,29.82,10.0,Calm,Calm,-,N/A,,Clear,0,2013-11-01 11:53:00
7:53 AM,44.1,35.1,71,29.84,10.0,NW,3.5,-,N/A,,Overcast,310,2013-11-01 12:53:00
8:53 AM,46.9,37.0,68,29.88,10.0,NNW,4.6,-,N/A,,Overcast,330,2013-11-01 13:53:00
9:53 AM,51.1,37.0,59,29.91,10.0,NW,9.2,-,N/A,,Mostly Cloudy,310,2013-11-01 14:53:00
10:53 AM,55.0,37.9,53,29.91,10.0,NNW,21.9,-,N/A,,Overcast,330,2013-11-01 15:53:00
11:53 AM,55.0,37.9,53,29.93,10.0,NW,16.1,-,N/A,,Mostly Cloudy,320,2013-11-01 16:53:00
12:53 PM,60.1,37.9,44,29.93,10.0,NW,17.3,-,N/A,,Partly Cloudy,320,2013-11-01 17:53:00
1:53 PM,62.1,35.1,37,29.92,10.0,NNW,24.2,-,N/A,,Scattered Clouds,330,2013-11-01 18:53:00
2:53 PM,64.0,33.1,31,29.91,10.0,NNW,18.4,28.8,N/A,,Scattered Clouds,340,2013-11-01 19:53:00
3:53 PM,64.0,32.0,30,29.92,10.0,NNW,17.3,-,N/A,,Partly Cloudy,330,2013-11-01 20:53:00
4:53 PM,64.0,30.9,29,29.94,10.0,NW,16.1,24.2,N/A,,Mostly Cloudy,320,2013-11-01 21:53:00
5:53 PM,57.0,37.9,49,29.96,10.0,NW,10.4,-,0.00,,Partly Cloudy,310,2013-11-01 22:53:00
6:53 PM,54.0,33.1,45,29.99,10.0,West,13.8,-,N/A,,Scattered Clouds,280,2013-11-01 23:53:00
7:53 PM,46.9,39.0,74,30.04,10.0,NW,6.9,-,0.00,,Scattered Clouds,320,2013-11-02 00:53:00
8:53 PM,48.9,37.9,66,30.06,10.0,WNW,9.2,-,N/A,,Overcast,290,2013-11-02 01:53:00
9:53 PM,46.0,36.0,68,30.08,10.0,WNW,8.1,-,N/A,,Clear,300,2013-11-02 02:53:00
10:53 PM,46.9,34.0,61,30.11,10.0,NNW,15.0,-,N/A,,Clear,330,2013-11-02 03:53:00
11:53 PM,44.1,33.1,65,30.12,10.0,NW,6.9,-,N/A,,Clear,320,2013-11-02 04:53:00